User: anonymous   Login
Location: Unspecified
(48.5670°N, 0.0000°E)
Time: 01:42:18
(UTC+00:00)
Language:

ITUPSAT 1 - Orbit

View from above orbital plane
View from above orbital plane
View from above satellite
View from above satellite

Ground track
Ground track

The orbit data is extracted from the following two-line orbital elements,

1 35935U 09051E   20297.46036184 +.00000106 +00000-0 +35420-4 0  9997
2 35935 098.6197 125.9313 0009148 105.4091 254.8116 14.55648484588291
Epoch (UTC): 23 October 2020 11:02:55
Eccentricity: 0.0009148
inclination: 98.6197°
perigee height: 701 km
apogee height: 714 km
right ascension of ascending node: 125.9313°
argument of perigee: 105.4091°
revolutions per day: 14.55648484
mean anomaly at epoch: 254.8116°
orbit number at epoch: 58829

The dashed part of the orbit path shows where the satellite is in the earth's shadow,  

DLR